ECHOSTAR 11

Last updated on Tue Sep 22 2026 00:03:11 GMT+0000 (Coordinated Universal Time)

1 33207U 08035A 26264.50657181 -.00000061 00000+0 00000+0 0 9990 2 33207 1.2467 82.8817 0002606 77.0503 273.0538 1.00272460 52172
UTC large
Height (km)
Speed (km/s)
/
Latitude / Longitude
Inclination (degrees)
Orbital Period (minutes)
Azimuth
Elevation
Range (km)
Doppler Factor

Next 0 passes for location: London (51.5072 / 0.1276)

No passes found over London.
ECHOSTAR 11